Lexington Weather

Lexington, Massachusetts, USA

44°F
4/22/2024 9:06am 
  • Lexington Conditions: Clear
  • Temperature: 44.1°F / 6.7°CWarmer 3.6°F than last hour.
  • Dew Point: 27.5°FDecreased 0.5°Fsince last hour.
  • Relative Humidity: 52%Decreased 9.0% since last hour.
  • Wind: Calm, 10-min avg: Calm, gust: 4 mph
  • Barometer: 29.96 in Steady
  • Visibility: 10 miles
  • Rain Today: 0.00 in
  •   

Regional Weather Roundup
for Boston, MA

        
000
ASUS41 KBOX 160610
RWRBOX

REGIONAL WEATHER ROUNDUP
NATIONAL WEATHER SERVICE BOSTON/NORTON MA
200 AM EDT TUE APR 16 2024

NOTE:  "FAIR" INDICATES FEW OR NO CLOUDS BELOW 12,000 FEET WITH NO 
SIGNIFICANT WEATHER AND/OR OBSTRUCTIONS TO VISIBILITY.

MAZALL-160700-
EASTERN MASSACHUSETTS
  
CITY           SKY/WX    TMP DP  RH WIND       PRES   REMARKS
BOSTON         PTCLDY    53  39  59 NW7       29.98F                  
6HR MIN TEMP:  52; 6HR MAX TEMP:  63;                                

BEVERLY        CLEAR     42  37  82 CALM      29.98R                  
LAWRENCE       CLEAR     44  39  82 CALM      29.99F                  
BEDFORD        CLEAR     42  39  89 CALM      29.98S                  
NORWOOD        CLOUDY    55  40  56 N5        29.98S                  
MARSHFIELD     MOCLDY    52  43  71 N5        29.96F                  
PLYMOUTH       CLOUDY    50  46  86 N5        29.96S                  
TAUNTON        LGT RAIN  51  47  86 CALM      29.97S                  
NEW BEDFORD    CLOUDY    50  47  89 SW3       29.98R                  
$$

MAZALL-160700-
CAPE COD AND THE ISLANDS
  
CITY           SKY/WX    TMP DP  RH WIND       PRES   REMARKS
FALMOUTH       CLOUDY    48  45  87 NE5       29.96S                  
HYANNIS        CLOUDY    50  43  77 NW3       29.95S                  
CHATHAM        CLOUDY    51  46  83 NE5       29.95F                  
PROVINCETOWN   MOCLDY    50  44  80 N7        29.97R                  
NANTUCKET      LGT RAIN  50  45  83 N13       29.95F                  
MARTHAS VNYRD  LGT RAIN  50  46  86 N5        29.96R                  
$$
 
MAZALL-160700-
CENTRAL AND WESTERN MASSACHUSETTS
  
CITY           SKY/WX    TMP DP  RH WIND       PRES   REMARKS
WORCESTER      CLEAR     48  30  49 W6        29.98S                  
6HR MIN TEMP:  45; 6HR MAX TEMP:  58;                                

FITCHBURG      CLEAR     39  35  86 CALM      29.99S                  
ORANGE         CLEAR     37  34  89 CALM      30.00S                  
SPRINGFIELD    CLEAR     40  35  83 NE3       29.97S                  
WESTFIELD      CLEAR     39  33  79 CALM      30.00R                  
NORTH ADAMS    CLEAR     37  33  85 CALM      30.00S                  
PITTSFIELD     CLEAR     39  30  70 CALM      29.98S                  
$$
 
RIZALL-160700-
RHODE ISLAND
  
CITY           SKY/WX    TMP DP  RH WIND       PRES   REMARKS
PROVIDENCE     CLOUDY    53  40  61 N5        29.98S                  
6HR MIN TEMP:  53; 6HR MAX TEMP:  65; 6HR PCP:  0.01;                

NEWPORT        MOCLDY    51  40  65 CALM      29.97R                  
BLOCK ISLAND   CLOUDY    53  35  50 N7        30.00R                  
SMITHFIELD     CLOUDY    51  39  63 CALM      29.98F                  
WESTERLY       MOCLDY    56  34  43 N6        29.99R                  
$$
 
CTZALL-160700-
CONNECTICUT
  
CITY           SKY/WX    TMP DP  RH WIND       PRES   REMARKS
BRADLEY INTL   PTCLDY    53  30  41 W3        30.00S                  
6HR MIN TEMP:  53; 6HR MAX TEMP:  63;                                

HARTFORD       MOCLDY    55  31  39 CALM      30.00S                  
PLAINVILLE     FAIR      49  34  56 CALM      30.00F                  
BRIDGEPORT     MOCLDY    56  32  40 N5        30.01R                  
DANBURY        CLEAR     48  34  58 SW3       30.02S                  
GROTON         CLOUDY    58  32  37 N8        29.98R                  
NEW HAVEN      CLOUDY    59  30  33 N8        30.01R                  
CHESTER        PTCLDY    55  27  33 NW7       30.00R                  
MERIDEN        MOCLDY    54  28  36 NW5       30.00F                  
WILLIMANTIC    MOCLDY    52  33  48 CALM      29.99S                  
OXFORD         PTCLDY    49  30  48 N6        30.01S                  
$$

MEZ002-015-021-024-NHZ003-005-008-011-012-014-VTZ005-008-160700-
NORTHERN NEW ENGLAND
  
CITY           SKY/WX    TMP DP  RH WIND       PRES   REMARKS
PORTLAND ME    CLEAR     40  34  79 CALM      29.96S                  
6HR MIN TEMP:  39; 6HR MAX TEMP:  55;                                

BANGOR ME      PTCLDY    41  33  73 W5        29.92F                  
CONCORD NH     CLEAR     35  35 100 CALM      29.98S                  
MANCHESTER NH  CLEAR     41  38  89 CALM      29.97S                  
NASHUA NH      CLEAR     41  41 100 CALM      29.99S                  
PORTSMOUTH NH  CLEAR     44  40  86 CALM      29.96S                  
JAFFREY NH     CLEAR     37  34  89 S5        29.98S                  
KEENE NH       CLEAR     36  36 100 SW3       29.99S FOG              
BURLINGTON VT  CLEAR     41  36  82 NE5       29.98R                  
MT. WASHINGTON BLWGSNOW  23  21  93 W47         N/A  VSB 1/8 WCI   2  
$$

NYZ052-076-160700-
EASTERN NEW YORK
  
CITY           SKY/WX    TMP DP  RH WIND       PRES   REMARKS
ALBANY         CLEAR     39  32  76 S3        30.02S                  
6HR MIN TEMP:  39; 6HR MAX TEMP:  55;                                

NEW YORK CITY  PTCLDY    56  36  47 N5        30.02S                  
6HR MIN TEMP:  56; 6HR MAX TEMP:  65;                                

$$
 
ANZALL-160700-
MARINE OBSERVATIONS
  
STATION/POSITION TIME  TEMP    WIND        PRES    VSBY  WAVE
                       AIR SEA DIR/SP/G                  HT/PER
                 (UTC) (F)     (DEG/KT/KT) (MB)    (MI)  (FT/S)
BOSTON BUOY      0550   48     280/  6/  8 1015.2R         3/10
BUZZARDS BAY     0500   50      60/ 13/ 13 1014.7F
NANTUCKET SOUND  0550   49 46  110/  2/  4 1014.5R         1/ 4
MASS BAY-STELLWA 0404   49 44  300/  6/  8 1014.6F  1 7/8  3/11
ISLE OF SHOALS   0500   51     290/  8/  8 1014.1R
S OF BLOCK IS    0556      45                N/A           5/ 8
$$

......................KEY.........................
  SKY/WX - SKY CONDITION/PRESENT WEATHER
  TMP    - TEMPERATURE IN FAHRENHEIT
  DWPT   - DEWPOINT IN FAHRENHEIT
  RH     - RELATIVE HUMIDITY IN PERCENT
  WIND   - DIRECTION AND SPEED IN MPH
  PRES   - MEAN SEA LEVEL PRESSURE IN INCHES OF HG
  WCI    - WIND CHILL INDEX
  VSB    - VISIBILITY IN MILES
  HX     - HEAT INDEX
  TC     - TEMPERATURE IN CELSIUS
  VRB    - VARIABLE WIND DIRECTION
  N/A    - NOT AVAILABLE
  
      

Other recent Regional Weather Roundups

Mon Apr 22, 8:10am EDT

Mon Apr 22, 7:10am EDT

Mon Apr 22, 6:10am EDT

Mon Apr 22, 5:10am EDT

Mon Apr 22, 4:10am EDT

Mon Apr 22, 3:10am EDT

Mon Apr 22, 2:10am EDT

Mon Apr 22, 1:10am EDT

Mon Apr 22, 12:10am EDT

Sun Apr 21, 11:10pm EDT

Sun Apr 21, 10:10pm EDT

Sun Apr 21, 9:10pm EDT

Sun Apr 21, 8:10pm EDT

Sun Apr 21, 7:10pm EDT

Sun Apr 21, 6:10pm EDT

Sun Apr 21, 5:10pm EDT

Sun Apr 21, 4:10pm EDT

Sun Apr 21, 3:10pm EDT

Sun Apr 21, 2:10pm EDT

Sun Apr 21, 1:10pm EDT

Sun Apr 21, 12:10pm EDT

Sun Apr 21, 11:10am EDT

Sun Apr 21, 10:10am EDT

Sun Apr 21, 9:10am EDT

Sun Apr 21, 8:10am EDT

Sun Apr 21, 7:10am EDT

Sun Apr 21, 6:10am EDT

Sun Apr 21, 5:10am EDT

Sun Apr 21, 4:10am EDT

Sun Apr 21, 3:10am EDT

Sun Apr 21, 2:10am EDT

Sun Apr 21, 1:10am EDT

Sun Apr 21, 12:10am EDT

Sat Apr 20, 11:10pm EDT

Sat Apr 20, 10:10pm EDT

Sat Apr 20, 9:10pm EDT

Sat Apr 20, 8:10pm EDT

Sat Apr 20, 7:10pm EDT

Sat Apr 20, 6:10pm EDT

Sat Apr 20, 5:10pm EDT

Sat Apr 20, 4:10pm EDT

Sat Apr 20, 3:10pm EDT

Sat Apr 20, 2:10pm EDT

Sat Apr 20, 1:10pm EDT

Sat Apr 20, 12:10pm EDT

Sat Apr 20, 11:10am EDT

Sat Apr 20, 10:10am EDT

Sat Apr 20, 9:10am EDT

Sat Apr 20, 8:10am EDT

Sat Apr 20, 7:10am EDT

Sat Apr 20, 6:10am EDT

Sat Apr 20, 5:10am EDT

Sat Apr 20, 4:10am EDT

Sat Apr 20, 3:10am EDT

Sat Apr 20, 2:10am EDT

Sat Apr 20, 1:10am EDT

Sat Apr 20, 12:10am EDT

Fri Apr 19, 11:10pm EDT

Fri Apr 19, 10:10pm EDT

Fri Apr 19, 9:10pm EDT

Fri Apr 19, 8:10pm EDT

Fri Apr 19, 7:10pm EDT

Fri Apr 19, 6:10pm EDT

Fri Apr 19, 5:10pm EDT

Fri Apr 19, 4:10pm EDT

Fri Apr 19, 3:10pm EDT

Fri Apr 19, 2:10pm EDT

Fri Apr 19, 1:10pm EDT

Fri Apr 19, 12:10pm EDT

Fri Apr 19, 11:10am EDT

Fri Apr 19, 10:10am EDT

Fri Apr 19, 9:10am EDT

Fri Apr 19, 8:10am EDT

Fri Apr 19, 7:10am EDT

Fri Apr 19, 6:10am EDT

Fri Apr 19, 5:10am EDT

Fri Apr 19, 4:10am EDT

Fri Apr 19, 3:10am EDT

Fri Apr 19, 2:10am EDT

Fri Apr 19, 1:10am EDT

Fri Apr 19, 12:10am EDT

Thu Apr 18, 11:10pm EDT

Thu Apr 18, 10:10pm EDT

Thu Apr 18, 9:10pm EDT

Thu Apr 18, 8:10pm EDT

Thu Apr 18, 7:10pm EDT

Thu Apr 18, 6:10pm EDT

Thu Apr 18, 5:10pm EDT

Thu Apr 18, 4:10pm EDT

Thu Apr 18, 3:10pm EDT

Thu Apr 18, 2:10pm EDT

Thu Apr 18, 1:10pm EDT

Thu Apr 18, 12:10pm EDT

Thu Apr 18, 11:10am EDT

Thu Apr 18, 10:10am EDT

Thu Apr 18, 9:10am EDT

Thu Apr 18, 8:10am EDT

Thu Apr 18, 7:10am EDT

Thu Apr 18, 6:10am EDT

Thu Apr 18, 5:10am EDT

Thu Apr 18, 4:10am EDT

Thu Apr 18, 3:10am EDT

Thu Apr 18, 2:10am EDT

Thu Apr 18, 1:10am EDT

Thu Apr 18, 12:10am EDT

Wed Apr 17, 11:10pm EDT

Wed Apr 17, 10:10pm EDT

Wed Apr 17, 9:10pm EDT

Wed Apr 17, 8:10pm EDT

Wed Apr 17, 7:10pm EDT

Wed Apr 17, 6:10pm EDT

Wed Apr 17, 5:10pm EDT

Wed Apr 17, 4:10pm EDT

Wed Apr 17, 3:10pm EDT

Wed Apr 17, 2:10pm EDT

Wed Apr 17, 1:10pm EDT

Wed Apr 17, 12:10pm EDT

Wed Apr 17, 11:10am EDT

Wed Apr 17, 10:10am EDT

Wed Apr 17, 9:10am EDT

Wed Apr 17, 8:10am EDT

Wed Apr 17, 7:10am EDT

Wed Apr 17, 6:10am EDT

Wed Apr 17, 5:10am EDT

Wed Apr 17, 4:10am EDT

Wed Apr 17, 3:10am EDT

Wed Apr 17, 2:10am EDT

Wed Apr 17, 1:10am EDT

Wed Apr 17, 12:10am EDT

Tue Apr 16, 11:10pm EDT

Tue Apr 16, 10:10pm EDT

Tue Apr 16, 9:10pm EDT

Tue Apr 16, 8:10pm EDT

Tue Apr 16, 7:10pm EDT

Tue Apr 16, 6:10pm EDT

Tue Apr 16, 5:10pm EDT

Tue Apr 16, 4:10pm EDT

Tue Apr 16, 3:10pm EDT

Tue Apr 16, 2:10pm EDT

Tue Apr 16, 1:10pm EDT

Tue Apr 16, 12:10pm EDT

Tue Apr 16, 11:10am EDT

Tue Apr 16, 10:10am EDT

Tue Apr 16, 9:10am EDT

Tue Apr 16, 8:10am EDT

Tue Apr 16, 7:10am EDT

Tue Apr 16, 6:10am EDT

Tue Apr 16, 5:10am EDT

Tue Apr 16, 4:10am EDT

Tue Apr 16, 3:10am EDT

Tue Apr 16, 1:10am EDT

Tue Apr 16, 12:10am EDT

Mon Apr 15, 11:10pm EDT

Mon Apr 15, 10:10pm EDT

Mon Apr 15, 9:10pm EDT

Mon Apr 15, 8:10pm EDT

Mon Apr 15, 7:10pm EDT

Mon Apr 15, 6:10pm EDT

Mon Apr 15, 5:10pm EDT

Mon Apr 15, 4:10pm EDT

Mon Apr 15, 3:10pm EDT

Mon Apr 15, 2:10pm EDT

Mon Apr 15, 1:10pm EDT

Mon Apr 15, 12:10pm EDT

Mon Apr 15, 11:10am EDT

Mon Apr 15, 10:10am EDT

Mon Apr 15, 9:10am EDT